Hurricane Symbol View the latest observations near Atlantic Tropical Storm Alberto.

Station 41025 (LLNR 637) - Diamond Shoals, NC Image indicating link to RSS feed of recent meteorological observations for station 41025


Conditions at 41025 as of
(7:20 am EDT)
1120 GMT on 06/20/2024:
     

Click on the graph icon in the table below to see a time series plot of the last five days of that observation.

5-day plot - Wind Direction Wind Direction (WDIR): E ( 90 deg true )
5-day plot - Wind Speed Wind Speed (WSPD): 9.7 kts
5-day plot - Wind Gust Wind Gust (GST): 13.6 kts
5-day plot - Wave Height Wave Height (WVHT): 4.9 ft
5-day plot - Dominant Wave Period Dominant Wave Period (DPD): 8 sec
5-day plot - Average Wave Period Average Period (APD): 5.6 sec
5-day plot - Mean Wave Direction Mean Wave Direction (MWD):ESE ( 113 deg true )
5-day plot - Atmospheric Pressure Atmospheric Pressure (PRES):30.30 in
5-day plot - Water Temperature Water Temperature (WTMP): 78.1 °F
5-day plot - Wind Speed at 10 Meters Wind Speed at 10 meters (WSPD10M): 11.7 kts
5-day plot - Wind Speed at 20 Meters Wind Speed at 20 meters (WSPD20M): 11.7 kts
5-day plot -  Wind Speed, Wind Gust and Atmospheric Pressure Combined plot of Wind Speed, Gust, and Air Pressure
Supplemental Measurements
Highest 1-minute Wind Speed
Time (EDT)5-day plot - 1-Minute Wind Speed WSPD 5-day plot - 1-Minute Wind Direction WDIR
7:16 am 11.7 kts-
Previous observations
TIME
(EDT)
5-day plot - Wind Direction
WDIR
 
5-day plot - Wind Speed
WSPD
kts
5-day plot - Wind Gust
GST
kts
5-day plot - Wave Height
WVHT
ft
5-day plot - Dominant Wave Period
DPD
sec
5-day plot - Average Wave Period
APD
sec
5-day plot - Mean Wave Direction
MWD
 
5-day plot - Atmospheric Pressure
PRES
in
5-day plot - Pressure Tendency
PTDY
in
5-day plot - Air Temperature
ATMP
°F
5-day plot - Water Temperature
WTMP
°F
5-day plot - Dew Point
DEWP
°F
5-day plot - Salinity
SAL
psu
5-day plot - Visibility
VIS
nmi
5-day plot - Tide (above MLLW)
TIDE
ft
2024-06-20 07:10 am E 11.7 15.5 4.9-5.6ESE30.30-- 78.1----
2024-06-20 07:00 am E 11.7 15.5----30.30+0.03- 78.1----
2024-06-20 06:50 am E 9.7 15.5 4.9 85.7 E30.30-- 78.1----
2024-06-20 06:40 am E 11.7 15.5 4.9-5.7 E30.30-- 78.3----
2024-06-20 06:30 am E 11.7 15.5----30.29-- 78.3----
2024-06-20 06:20 amESE 11.7 17.5 4.9 75.9ESE30.29-- 78.6----
2024-06-20 06:10 am E 9.7 17.5 4.9-5.9ESE30.29-- 79.0----
2024-06-20 06:00 am E 9.7 15.5----30.29+0.02- 79.2----
2024-06-20 05:50 am E 11.7 15.5 4.9 85.8ESE30.29-- 79.5----
2024-06-20 05:40 am E 11.7 15.5 4.9-5.8ESE30.28-- 80.6----
2024-06-20 05:30 am E 11.7 15.5----30.28-- 80.8----
2024-06-20 05:20 am E 11.7 17.5 4.9 85.6ESE30.28-- 82.2----
2024-06-20 05:10 amESE 11.7 15.5 4.9-5.6ESE30.28-- 82.2----
2024-06-20 05:00 amESE 9.7 13.6----30.28+0.00- 82.2----
2024-06-20 04:50 amESE 11.7 15.5 4.9 85.8 E30.28-- 82.4----
2024-06-20 04:40 amESE 9.7 15.5----30.28-- 82.4----
2024-06-20 04:30 am E 9.7 13.6----30.27-- 82.6----
2024-06-20 04:20 am E 11.7 17.5 4.9 85.7ESE30.27-- 82.6----
2024-06-20 04:10 amESE 13.6 17.5 4.9-5.7ESE30.27-- 82.6----
2024-06-20 04:00 amESE 11.7 17.5----30.27-0.01- 82.6----
2024-06-20 03:50 am E 11.7 17.5 4.9 85.6ESE30.28-- 82.6----
2024-06-20 03:40 am E 11.7 15.5 4.9-5.6ESE30.27-- 82.6----
2024-06-20 03:30 am E 11.7 13.6----30.27-- 82.6----
2024-06-20 03:20 am E 11.7 15.5 5.2 85.7ESE30.27-- 82.6----
2024-06-20 03:10 amESE 11.7 15.5 5.2-5.7ESE30.27-- 82.6----
2024-06-20 03:00 amESE 11.7 15.5----30.27-0.03- 82.6----
2024-06-20 02:50 amESE 11.7 15.5 4.6 85.4 E30.27-------
2024-06-20 02:40 amESE 13.6 17.5 4.6-5.4 E30.28-- 82.8----
2024-06-20 02:30 amESE 11.7 15.5----30.28-- 82.8----
2024-06-20 02:20 amESE 13.6 19.4 5.2 85.8ESE30.28-------
2024-06-20 02:10 amESE 13.6 17.5 5.2-5.8ESE30.28-- 82.8----
2024-06-20 02:00 amESE 13.6 17.5----30.28-0.03- 82.8----
2024-06-20 01:50 amESE 11.7 15.5 5.2-5.9ESE30.28-------
2024-06-20 01:40 am--- 5.2 8----- 82.8----
2024-06-20 01:30 amESE 13.6 19.4----30.28-- 82.8----
2024-06-20 01:20 amESE 11.7 15.5 4.9 85.7ESE30.28-- 82.8----
2024-06-20 01:10 amESE 9.7 13.6 4.9-5.7ESE30.28-- 82.8----
2024-06-20 01:00 amESE 7.8 11.7----30.29-0.02- 82.8----
2024-06-20 12:50 am E 9.7 13.6 5.2 85.9ESE30.29-- 82.8----
2024-06-20 12:40 amESE 9.7 13.6----30.29-- 82.8----
2024-06-20 12:30 amESE 11.7 15.5----30.29-- 82.8----
2024-06-20 12:20 am E 11.7 13.6 5.9 85.8ESE30.30-- 82.9----
2024-06-20 12:10 amESE 11.7 15.5----30.30-- 82.9----
2024-06-20 12:00 am E 9.7 15.5----30.30+0.01- 82.9----
2024-06-19 11:50 pmESE 11.7 15.5 6.2 85.9ESE30.31-- 82.9----
2024-06-19 11:40 pmESE 11.7 15.5----30.31-- 82.9----
2024-06-19 11:30 pm E 13.6 17.5----30.31-- 82.9----
2024-06-19 11:20 pmESE 11.7 15.5 5.6 85.9ESE30.30-- 83.1----
2024-06-19 11:10 pm E 13.6 17.5----30.31-- 83.1----
2024-06-19 11:00 pm E 11.7 15.5----30.31+0.02- 83.1----
2024-06-19 10:50 pm E 11.7 17.5 5.6 85.7ESE30.31-- 83.1----
2024-06-19 10:40 pm E 11.7 17.5 5.6-5.7ESE30.31-- 83.1----
2024-06-19 10:30 pm E 11.7 17.5----30.31-- 83.1----
2024-06-19 10:20 pm E 11.7 17.5 5.6 75.7ESE30.30-- 83.1----
2024-06-19 10:10 pmESE 13.6 17.5 5.6-5.7ESE30.30-- 83.1----
2024-06-19 10:00 pmESE 13.6 17.5----30.30+0.02- 83.3----
2024-06-19 09:50 pmESE 11.7 17.5 5.9 85.7ESE30.30-- 83.3----
2024-06-19 09:40 pmESE 11.7 15.5----30.30-- 83.3----
2024-06-19 09:30 pmESE 11.7 15.5----30.30-- 83.3----
2024-06-19 09:20 pm E 11.7 15.5 5.2 85.6ESE30.29-- 83.3----
2024-06-19 09:10 pm E 13.6 21.4----30.29-- 83.3----
2024-06-19 09:00 pm E 13.6 17.5----30.29+0.00- 83.3----
2024-06-19 08:50 pm E 13.6 17.5 4.9 85.4ESE30.29-- 83.3----
2024-06-19 08:40 pm E 11.7 17.5----30.29-- 83.5----
2024-06-19 08:30 pm E 13.6 17.5----30.29-- 83.5----
2024-06-19 08:20 pm E 13.6 17.5 5.2 85.5ESE30.29-- 83.5----
2024-06-19 08:10 pm E 13.6 17.5 5.2-5.5ESE30.29-- 83.5----
2024-06-19 08:00 pm E 13.6 17.5----30.29+0.00- 83.5----
2024-06-19 07:50 pm E 13.6 17.5 5.2 85.5ESE30.29-- 83.5----
2024-06-19 07:40 pm E 13.6 17.5----30.28-- 83.5----
2024-06-19 07:10 pm E 13.6 17.5 5.2-5.3ESE30.28-- 83.5----
2024-06-19 07:00 pm E 13.6 17.5----30.29-0.02- 83.5----
2024-06-19 06:50 pm E 13.6 17.5 4.9 85.2ESE30.28-- 83.5----
2024-06-19 06:40 pm E 15.5 17.5----30.29-- 83.5----
2024-06-19 06:30 pm E 13.6 17.5----30.29-- 83.5----
2024-06-19 06:20 pm E 13.6 17.5 4.9 75.3ESE30.29-- 83.5----
2024-06-19 06:10 pm E 13.6 17.5 4.9-5.3ESE30.29-- 83.5----
2024-06-19 06:00 pm E 15.5 19.4----30.28-0.02- 83.5----
2024-06-19 05:50 pm E 15.5 19.4 4.3 75.1ESE30.28-- 83.5----
2024-06-19 05:40 pm E 13.6 17.5----30.29-- 83.5----
2024-06-19 05:30 pm E 13.6 19.4----30.29-- 83.5----
2024-06-19 05:20 pm E 13.6 17.5 4.6 75.3ESE30.29-- 83.5----
2024-06-19 05:10 pm E 13.6 17.5 4.6-5.3ESE30.29-- 83.5----
2024-06-19 05:00 pm E 13.6 17.5----30.29-0.02- 83.5----
2024-06-19 04:50 pm E 15.5 19.4 4.3 85.1ESE30.29-- 83.7----
2024-06-19 04:40 pm E 15.5 19.4----30.29-- 83.7----
2024-06-19 04:30 pm E 13.6 17.5----30.30-- 83.7----
2024-06-19 04:20 pm E 15.5 17.5 4.3 75.1ESE30.30-- 83.7----
2024-06-19 04:10 pm E 13.6 19.4 4.3-5.1ESE30.31-- 83.7----
2024-06-19 04:00 pm E 13.6 19.4----30.31+0.00- 83.7----
2024-06-19 03:50 pm E 13.6 17.5 4.3 75.1ESE30.31-- 83.7----
2024-06-19 03:40 pm E 11.7 15.5----30.31-- 83.7----
2024-06-19 03:30 pm E 11.7 15.5----30.31-- 83.7----
2024-06-19 03:20 pm E 11.7 15.5 3.9 75.1ESE30.31-- 83.7----
2024-06-19 03:10 pm E 11.7 15.5 3.9-5.1ESE30.30-- 83.7----
2024-06-19 03:00 pm E 13.6 19.4----30.30-0.01- 83.7----
2024-06-19 02:50 pm E 9.7 13.6 3.6 75.2ESE30.30-- 83.7----
2024-06-19 02:40 pm E 11.7 15.5----30.31-- 83.7----
2024-06-19 02:30 pm E 11.7 19.4----30.31-- 83.7----
2024-06-19 02:20 pm E 13.6 19.4 3.6 65.1ESE30.31-- 83.7----
2024-06-19 02:10 pm E 13.6 17.5 3.6-5.1ESE30.31-- 83.7----
2024-06-19 02:00 pm E 9.7 13.6----30.31+0.00- 83.7----
2024-06-19 01:50 pm E 5.8 9.7 3.3 75.1ESE30.31-- 83.7----
2024-06-19 01:40 pm E 7.8 9.7----30.31-- 83.7----
2024-06-19 01:30 pm E 5.8 9.7----30.32-- 83.7----
2024-06-19 01:20 pm E 7.8 11.7 3.6 65.1ESE30.32-- 83.7----
2024-06-19 01:10 pm E 5.8 11.7----30.32-- 83.7----
2024-06-19 01:00 pm E 7.8 9.7----30.32+0.00- 83.5----
2024-06-19 12:50 pm E 7.8 9.7 3.3 74.9ESE30.32-- 83.5----
2024-06-19 12:40 pm E 7.8 11.7----30.32-- 83.5----
2024-06-19 12:30 pm E 7.8 11.7----30.32-- 83.5----
2024-06-19 12:20 pm E 9.7 13.6 3.6 65.0ESE30.32-- 83.5----
2024-06-19 12:10 pm E 9.7 13.6 3.6-5.0ESE30.32-- 83.5----
2024-06-19 12:00 pm E 9.7 13.6----30.31+0.00- 83.5----
2024-06-19 11:50 am E 9.7 13.6 3.3 74.9ESE30.31-- 83.5----
2024-06-19 11:40 am E 9.7 13.6----30.31-- 83.5----
2024-06-19 11:30 am E 9.7 13.6----30.32-- 83.5----
2024-06-19 11:20 am E 9.7 13.6 3.6 75.1ESE30.31-- 83.5----
2024-06-19 11:10 am E 9.7 13.6 3.6-5.1ESE30.31-- 83.5----
2024-06-19 11:00 am E 9.7 13.6----30.31+0.01- 83.5----
2024-06-19 10:50 am E 11.7 15.5 3.6 64.9ESE30.31-- 83.5----
2024-06-19 10:40 am E 11.7 17.5----30.31-- 83.5----
2024-06-19 10:30 am E 11.7 19.4----30.31-- 83.5----
2024-06-19 10:20 am E 11.7 15.5 3.6 75.1 E30.32-- 83.5----
2024-06-19 10:10 am E 11.7 15.5 3.6-5.1 E30.32-- 83.5----
2024-06-19 10:00 amESE 9.7 15.5----30.32+0.04- 83.5----
2024-06-19 09:50 am E 9.7 13.6 3.9 75.0ESE30.32-- 83.5----
2024-06-19 09:40 am E 9.7 13.6----30.31-- 83.5----
2024-06-19 09:30 am E 11.7 15.5----30.31-- 83.5----
2024-06-19 09:20 am E 11.7 15.5 3.3 74.9 E30.31-- 83.5----
2024-06-19 09:10 am E 11.7 15.5 3.3-4.9 E30.31-- 83.5----
2024-06-19 09:00 am E 11.7 17.5----30.31+0.05- 83.5----
2024-06-19 08:50 am E 11.7 15.5 3.6 64.8 SE30.30-- 83.5----
2024-06-19 08:40 am E 13.6 17.5----30.30-- 83.5----
2024-06-19 08:30 am E 11.7 15.5----30.30-- 83.5----
2024-06-19 08:20 am E 11.7 15.5 3.9 65.0ESE30.30-- 83.5----
2024-06-19 08:10 am E 11.7 15.5----30.30-- 83.5----
2024-06-19 08:00 am E 11.7 15.5----30.30+0.06- 83.5----
2024-06-19 07:50 am E 11.7 13.6 3.9 74.9 E30.30-- 83.3----
2024-06-19 07:40 am E 11.7 15.5----30.29-- 83.3----
2024-06-19 07:30 am E 11.7 15.5----30.29-- 83.3----
2024-06-19 07:20 am E 11.7 15.5 3.9 65.1 E30.29-- 83.3----
2024-06-19 07:10 am E 11.7 15.5 3.9-5.1 E30.28-- 83.3----
2024-06-19 07:00 am E 11.7 15.5----30.28+0.03- 83.3----
2024-06-19 06:50 amESE 11.7 15.5 3.9 64.8ESE30.28-- 83.1----

Detailed Wave Summary
for 41025 as of (7:10 am EDT)
1110 GMT on 06/20/2024:

These wave data are displayed in rounded times.

     

Click on the graph icon in the table below to see a time series plot of the last five days of that observation.

5-day plot - Significant Wave Height Significant Wave Height (WVHT): 4.9 ft
5-day plot - Wave Steepness Wave Steepness (STEEPNESS): AVERAGE
5-day plot - Average Wave Period Average Wave Period (APD): 5.6 sec
Previous observations
TIME
(EDT)
5-day plot - Wave Height
WVHT
ft
5-day plot - Swell Height
SwH
ft
5-day plot - Swell Period
SwP
sec
5-day plot - Swell Direction
SwD
 
5-day plot - Wind Wave Height
WWH
ft
5-day plot - Wind Wave Period
WWP
sec
5-day plot - Wind Wave Direction
WWD
 
5-day plot - Wave Steepness
STEEPNESS
 
5-day plot - Average Wave Period
APD
sec
2024-06-20 06:40 am 4.9------ AVERAGE 5.7
2024-06-20 06:10 am 4.9------ STEEP 5.9
2024-06-20 05:40 am 4.9------ AVERAGE 5.8
2024-06-20 05:10 am 4.9------ AVERAGE 5.6
2024-06-20 04:40 am 4.9------ AVERAGE 5.8
2024-06-20 04:10 am 4.9------ AVERAGE 5.7
2024-06-20 03:40 am 4.9------ AVERAGE 5.6
2024-06-20 03:10 am 5.2------ AVERAGE 5.7
2024-06-20 02:40 am 4.6------ AVERAGE 5.4
2024-06-20 02:10 am 5.2------ AVERAGE 5.8
2024-06-20 01:40 am 5.2------ AVERAGE 5.9
2024-06-20 01:10 am 4.9------ AVERAGE 5.7
2024-06-20 12:40 am 5.2------ AVERAGE 5.9
2024-06-20 12:10 am 5.9------ AVERAGE 5.8
2024-06-19 11:40 pm 6.2------ AVERAGE 5.9
2024-06-19 11:10 pm 5.6------ AVERAGE 5.9
2024-06-19 10:40 pm 5.6------ AVERAGE 5.7
2024-06-19 10:10 pm 5.6------ STEEP 5.7
2024-06-19 09:40 pm 5.9------ AVERAGE 5.7
2024-06-19 09:10 pm 5.2------ AVERAGE 5.6
2024-06-19 08:40 pm 4.9------ AVERAGE 5.4
2024-06-19 08:10 pm 5.2------ AVERAGE 5.5
2024-06-19 07:40 pm 5.2------ AVERAGE 5.5
2024-06-19 07:10 pm 5.2------ STEEP 5.3
2024-06-19 06:40 pm 4.9------ AVERAGE 5.2
2024-06-19 06:10 pm 4.9------ STEEP 5.3
2024-06-19 05:40 pm 4.3------ STEEP 5.1
2024-06-19 05:10 pm 4.6------ STEEP 5.3
2024-06-19 04:40 pm 4.3------ AVERAGE 5.1
2024-06-19 04:10 pm 4.3------ AVERAGE 5.1
2024-06-19 03:40 pm 4.3------ AVERAGE 5.1
2024-06-19 03:10 pm 3.9------ AVERAGE 5.1
2024-06-19 02:40 pm 3.6------ AVERAGE 5.2
2024-06-19 02:10 pm 3.6------ STEEP 5.1
2024-06-19 01:40 pm 3.3------ AVERAGE 5.1
2024-06-19 01:10 pm 3.6------ STEEP 5.1
2024-06-19 12:40 pm 3.3------ AVERAGE 4.9
2024-06-19 12:10 pm 3.6------ STEEP 5.0
2024-06-19 11:40 am 3.3------ AVERAGE 4.9
2024-06-19 11:10 am 3.6------ STEEP 5.1
2024-06-19 10:40 am 3.6------ STEEP 4.9
2024-06-19 10:10 am 3.6------ STEEP 5.1
2024-06-19 09:40 am 3.9------ STEEP 5.0
2024-06-19 09:10 am 3.3------ AVERAGE 4.9
2024-06-19 08:40 am 3.6------ STEEP 4.8
2024-06-19 08:10 am 3.9------ STEEP 5.0
2024-06-19 07:40 am 3.9------ STEEP 4.9
2024-06-19 07:10 am 3.9------ STEEP 5.1

Plot of wave energy versus frequency (and period)